Wind_Speed
7 7 8 7 7 7 7 8 8 9 10 9 9 10 11 11 11 12 12 12 12 12 12 12 12 13 13 13 13 12 12 12 12 13 13 14 14 15 15 15 15 15 14 14
7 7 7 7 7 8 8 9 9 9 10 10 9 10 12 12 12 12 12 13 13 13 13 13 13 12 13 13 12 13 13 13 13 13 13 14 14 15 15 15 15 14 14 14
8 8 8 8 9 9 9 10 10 10 10 10 10 11 12 12 12 13 13 13 13 13 13 13 13 13 13 13 14 14 13 13 13 13 14 15 15 15 15 15 14 14 13 14
9 9 9 9 9 10 10 10 10 10 10 10 10 13 14 14 13 13 13 13 13 13 14 14 14 14 14 14 14 14 14 14 14 14 14 15 15 15 15 14 14 13 13 13
10 11 10 10 10 11 10 10 10 10 10 10 11 13 15 17 15 14 14 14 14 14 15 15 14 14 14 15 14 14 15 15 15 15 15 15 16 15 14 14 13 13 13 13
11 12 12 11 11 11 11 10 9 9 11 11 11 13 16 17 17 16 16 15 15 16 16 16 16 16 15 15 15 15 15 16 16 16 16 16 16 15 14 14 14 14 14 14
13 13 13 13 12 11 11 11 11 11 11 12 13 14 16 17 18 18 18 17 16 17 17 17 17 17 16 16 16 16 16 16 16 16 16 16 15 15 15 15 15 15 14 14
13 13 13 13 13 13 12 13 12 12 11 13 15 16 17 17 17 18 18 18 18 18 18 18 18 18 17 17 17 17 16 16 16 16 16 16 16 16 16 15 15 15 15 15
13 15 15 15 15 14 14 14 14 14 14 15 16 20 19 17 18 18 19 19 19 19 18 18 18 18 18 18 18 18 17 17 17 17 17 16 16 16 16 16 16 16 15 15
15 16 16 16 17 16 16 15 15 16 16 17 18 20 22 19 20 20 20 20 20 20 20 19 19 19 19 19 19 19 18 18 18 18 18 17 17 16 16 16 15 15 15 15
16 17 18 17 17 17 17 16 17 17 17 18 17 19 20 21 22 22 22 22 21 21 20 20 20 20 20 20 20 19 20 20 19 19 19 18 18 18 17 17 16 16 16 16
17 17 18 18 17 17 17 17 17 18 19 19 20 22 22 22 23 23 23 23 23 22 21 21 21 21 21 21 21 21 21 21 20 20 20 20 19 19 18 18 17 17 17 17
17 17 17 17 18 18 18 17 18 19 20 20 21 23 23 23 24 24 24 23 23 23 23 22 22 22 22 22 21 21 22 22 22 21 21 21 20 20 20 19 18 18 18 18
18 17 17 17 19 20 19 19 19 20 20 20 20 22 24 24 24 25 25 25 24 24 24 23 23 23 23 22 22 22 23 23 23 23 22 22 22 22 21 21 21 20 20 19
19 19 18 19 21 22 22 21 21 21 21 22 21 23 24 25 25 25 25 24 25 25 24 23 23 23 23 23 23 23 23 24 24 24 24 24 24 23 23 23 23 22 21 21
21 20 20 20 20 23 23 22 22 22 22 22 22 23 24 25 26 26 26 25 25 25 25 24 24 24 24 24 24 25 25 25 25 25 25 25 25 25 25 25 25 24 23 23
22 22 22 21 21 23 24 22 23 23 23 23 23 24 25 26 26 27 27 27 26 26 26 26 26 26 26 26 26 25 25 26 26 25 26 26 26 26 26 26 26 25 25 24
22 22 22 22 22 23 22 21 22 23 23 25 25 26 26 26 27 27 27 27 27 26 26 26 27 27 27 27 27 26 26 26 27 27 27 27 27 27 27 27 27 27 27 26
22 22 23 23 23 23 23 22 22 23 24 25 26 26 27 27 28 27 27 26 26 26 26 26 27 27 27 27 27 27 28 27 28 28 28 28 28 28 28 28 28 28 28 29
22 22 23 23 24 24 23 22 22 24 25 24 25 26 26 27 29 28 29 28 28 28 28 28 28 28 28 28 28 28 28 28 29 29 29 29 29 29 29 29 29 30 30 30
23 23 23 24 25 25 24 23 23 24 25 25 25 26 26 27 28 29 29 29 29 29 29 29 29 29 29 29 29 30 30 30 30 30 30 30 30 30 31 31 31 31 32 32
24 24 24 25 25 25 25 25 25 26 26 26 26 27 28 28 28 29 30 30 30 30 30 30 30 30 30 30 30 30 31 31 31 31 31 32 32 32 32 33 33 33 33 33
25 25 26 26 27 27 27 27 27 28 28 28 28 29 30 30 30 30 31 32 32 31 31 31 31 31 31 31 31 31 31 31 32 32 33 33 33 34 34 34 34 34 34 34
27 27 27 27 28 28 29 29 29 30 30 30 30 31 31 31 32 32 32 33 32 32 32 32 33 33 33 32 32 32 32 32 32 33 33 34 34 34 35 35 35 35 35 36
29 29 29 29 29 30 30 30 30 31 31 32 32 32 33 33 33 33 33 33 33 33 33 33 34 34 34 34 34 34 34 34 33 33 34 34 34 35 35 35 35 36 36 37
30 31 31 31 31 32 33 33 33 33 33 33 33 33 34 34 33 33 33 34 34 34 34 35 36 36 36 36 36 36 36 36 36 35 34 34 34 35 35 36 36 36 37 37
Wind_Direction
245 249 251 252 253 255 261 268 277 284 287 290 292 292 293 293 294 293 291 290 292 289 291 292 293 293 294 294 292 290 289 292 293 292 292 295 297 299 298 300 299 298 296 294
251 252 253 254 255 253 260 268 273 280 286 289 290 292 294 297 295 295 293 290 290 289 291 293 292 293 296 295 293 294 292 292 293 293 293 294 296 299 299 299 300 299 295 292
255 258 255 256 257 258 259 268 276 283 286 288 288 289 292 296 296 295 294 292 291 291 293 295 295 295 295 292 290 291 292 292 292 293 295 294 296 298 299 298 297 298 295 293
258 260 259 257 259 262 263 267 273 280 285 289 293 293 293 296 297 296 294 292 290 291 293 293 293 294 293 291 290 291 291 292 293 294 294 295 296 295 295 296 295 297 298 295
257 260 261 260 263 265 268 267 272 279 285 288 293 293 295 294 297 296 294 293 290 289 290 291 290 290 290 290 290 290 290 291 291 292 292 294 294 292 291 293 294 294 297 297
260 263 264 266 267 266 268 268 273 279 283 285 288 287 288 292 294 296 296 293 292 289 288 288 288 288 288 288 290 291 291 290 290 291 290 291 292 289 289 291 293 293 293 295
264 264 265 267 266 264 263 269 277 281 287 291 291 287 286 292 292 294 294 293 293 291 290 288 287 287 288 288 287 288 289 289 289 291 291 290 292 289 289 290 292 293 293 293
270 270 268 267 267 266 264 266 269 271 273 281 284 280 288 293 292 291 291 291 290 289 289 288 287 286 285 285 285 285 287 288 288 288 289 289 289 290 289 288 288 291 292 292
262 268 270 268 268 267 265 266 269 270 269 269 274 280 283 288 291 289 288 287 288 287 286 285 284 284 283 283 281 282 284 286 286 286 287 288 287 288 289 288 287 288 290 291
265 266 271 272 270 267 264 265 267 267 269 270 272 277 283 287 290 290 288 287 286 285 283 282 282 282 282 281 281 281 282 284 283 283 284 286 285 285 286 287 287 288 289 288
265 269 272 271 269 270 269 267 266 268 270 269 273 272 277 282 288 289 289 288 287 284 283 283 282 280 281 281 281 280 280 281 281 281 282 283 283 283 283 285 284 284 285 285
264 267 272 274 273 272 270 269 269 268 268 268 269 273 277 280 285 287 287 287 288 287 283 282 282 281 281 281 280 279 278 279 279 278 278 280 281 282 282 282 282 280 281 283
265 266 268 271 274 272 270 268 268 269 271 272 272 274 279 282 285 285 285 286 287 287 284 282 281 281 281 280 279 278 277 277 277 276 277 277 278 279 281 282 280 279 279 280
268 266 267 267 271 275 273 271 271 271 270 272 274 275 278 283 285 286 286 285 287 287 285 283 281 280 280 279 278 277 277 277 276 275 275 275 275 276 278 278 280 278 277 277
270 268 267 267 268 272 274 274 273 273 272 270 272 273 275 280 284 287 288 287 286 286 285 282 282 281 280 279 279 278 278 277 276 275 274 274 274 273 275 277 279 279 277 276
269 270 269 269 269 271 273 274 275 275 274 274 272 273 276 278 281 286 286 287 286 285 285 285 284 283 281 281 281 280 278 277 276 275 274 274 273 274 275 277 277 277 277 276
268 270 271 271 270 272 274 276 277 278 276 276 274 274 276 277 280 284 285 285 287 286 285 285 284 283 281 281 281 281 279 277 276 275 274 274 274 274 275 276 275 275 276 276
269 271 272 274 272 274 280 279 279 279 278 276 274 275 277 278 281 283 284 285 285 286 285 284 284 284 283 282 280 279 281 278 276 275 276 275 275 275 275 275 275 275 275 275
267 270 271 273 275 277 277 280 281 281 280 279 279 279 280 278 281 282 283 284 284 284 284 284 285 284 284 282 280 279 279 278 277 276 277 276 276 275 275 275 275 275 276 276
267 270 271 272 274 276 278 280 281 282 281 283 283 283 283 281 282 283 284 284 285 285 285 285 285 286 284 281 280 281 280 279 278 277 277 277 276 275 275 275 276 276 276 277
268 270 271 273 275 277 278 279 280 280 283 284 284 284 283 283 284 285 285 284 284 285 286 286 285 285 283 282 281 281 280 279 278 277 277 276 276 276 275 275 276 276 275 275
270 272 272 273 275 277 277 277 277 279 280 283 284 284 284 285 285 285 284 284 284 285 285 285 285 284 283 283 282 281 280 280 279 278 277 276 276 276 276 276 276 275 275 275
267 270 273 274 275 278 278 277 279 279 280 281 283 284 285 285 285 284 284 285 285 285 285 285 285 285 283 283 283 282 281 280 279 279 278 277 276 276 276 276 275 275 275 276
266 268 270 274 277 278 277 278 279 279 280 281 282 283 284 285 284 284 283 283 284 285 285 286 286 285 284 283 283 283 283 283 281 280 279 279 278 277 277 277 276 276 276 276
267 269 270 272 274 274 275 276 278 279 280 282 282 284 284 284 285 284 283 283 283 284 285 285 286 286 285 284 284 283 283 284 283 282 281 280 278 278 278 277 278 277 278 278
266 268 270 271 272 273 275 276 277 279 280 282 283 284 284 284 284 284 283 283 284 284 285 286 286 285 284 283 283 283 282 282 282 282 282 280 279 278 278 278 277 278 279 277
Height
5863 5864 5864 5865 5865 5866 5866 5866 5867 5867 5866 5867 5866 5866 5865 5865 5865 5864 5864 5863 5863 5863 5863 5862 5862 5861 5861 5860 5859 5859 5859 5858 5858 5857 5856 5856 5855 5854 5853 5852 5851 5851 5850 5849
5862 5862 5863 5863 5864 5864 5865 5865 5865 5865 5865 5865 5865 5864 5863 5863 5863 5862 5862 5861 5861 5860 5860 5860 5859 5859 5858 5858 5857 5857 5856 5856 5855 5854 5854 5853 5852 5851 5850 5850 5849 5848 5847 5846
5860 5861 5861 5862 5862 5863 5863 5863 5863 5863 5863 5863 5863 5863 5861 5861 5861 5861 5860 5859 5859 5858 5857 5857 5856 5856 5856 5855 5855 5854 5853 5853 5852 5852 5851 5850 5850 5849 5848 5847 5846 5845 5844 5844
5858 5859 5859 5860 5860 5860 5861 5861 5861 5861 5861 5861 5861 5860 5859 5858 5859 5858 5858 5857 5856 5856 5855 5855 5854 5854 5853 5852 5852 5851 5850 5850 5849 5849 5848 5847 5847 5846 5845 5844 5843 5843 5842 5841
5856 5857 5857 5858 5858 5858 5859 5859 5859 5859 5859 5859 5859 5858 5858 5856 5855 5855 5855 5854 5854 5853 5852 5852 5851 5851 5850 5849 5849 5848 5847 5847 5846 5846 5845 5844 5843 5842 5842 5841 5840 5840 5839 5838
5854 5854 5855 5855 5856 5856 5856 5857 5857 5857 5856 5857 5857 5857 5856 5853 5852 5852 5852 5851 5851 5850 5849 5849 5848 5847 5847 5846 5845 5845 5844 5843 5843 5842 5841 5841 5840 5839 5839 5838 5838 5837 5836 5836
5851 5852 5852 5853 5853 5854 5854 5855 5855 5854 5854 5855 5854 5853 5853 5851 5850 5849 5848 5848 5847 5847 5846 5845 5845 5844 5843 5843 5842 5841 5840 5840 5839 5839 5838 5837 5836 5836 5835 5835 5834 5834 5833 5833
5848 5849 5849 5849 5850 5851 5851 5851 5852 5852 5852 5852 5851 5850 5849 5848 5847 5846 5845 5844 5844 5843 5842 5842 5841 5840 5839 5839 5838 5837 5837 5836 5835 5835 5835 5834 5833 5833 5832 5832 5831 5831 5830 5829
5845 5846 5846 5846 5846 5847 5847 5847 5848 5848 5848 5848 5848 5846 5845 5844 5843 5842 5841 5841 5840 5839 5838 5838 5837 5836 5835 5834 5834 5833 5833 5832 5832 5831 5831 5830 5829 5829 5829 5828 5827 5827 5826 5826
5842 5842 5842 5842 5842 5843 5844 5844 5844 5844 5844 5844 5845 5843 5841 5840 5839 5838 5837 5836 5835 5835 5834 5833 5832 5831 5831 5830 5829 5829 5829 5828 5828 5827 5827 5826 5826 5825 5825 5824 5824 5823 5823 5822
5838 5838 5838 5838 5839 5839 5840 5840 5839 5839 5839 5839 5839 5840 5837 5835 5834 5833 5832 5831 5830 5829 5829 5828 5827 5826 5826 5825 5825 5824 5824 5824 5823 5823 5822 5822 5821 5821 5821 5820 5820 5819 5819 5818
5833 5834 5834 5834 5834 5834 5835 5835 5835 5835 5834 5834 5834 5835 5831 5830 5829 5828 5827 5826 5825 5824 5823 5823 5822 5821 5821 5820 5819 5819 5819 5818 5818 5818 5817 5817 5817 5816 5816 5816 5815 5815 5815 5814
5829 5830 5830 5830 5831 5831 5830 5830 5830 5829 5829 5829 5829 5830 5826 5825 5824 5823 5821 5821 5820 5819 5818 5817 5816 5816 5815 5814 5814 5814 5813 5813 5813 5812 5812 5812 5812 5811 5811 5811 5810 5810 5810 5810
5825 5825 5826 5826 5825 5824 5824 5825 5824 5824 5824 5823 5823 5822 5820 5819 5818 5817 5816 5815 5814 5813 5812 5811 5810 5810 5809 5809 5808 5808 5807 5807 5806 5806 5806 5806 5806 5806 5806 5806 5805 5805 5805 5805
5819 5820 5820 5820 5819 5819 5819 5819 5819 5818 5818 5818 5818 5816 5815 5814 5813 5811 5810 5809 5808 5807 5806 5805 5804 5804 5803 5802 5802 5802 5801 5801 5800 5800 5800 5800 5800 5800 5800 5800 5800 5799 5799 5799
5814 5814 5814 5814 5814 5813 5813 5813 5813 5812 5812 5811 5811 5810 5809 5808 5807 5805 5804 5803 5802 5801 5800 5799 5798 5797 5797 5796 5796 5795 5794 5794 5794 5793 5794 5793 5793 5793 5794 5793 5793 5793 5793 5793
5808 5809 5809 5809 5808 5807 5806 5808 5807 5806 5806 5806 5805 5805 5803 5802 5801 5800 5798 5796 5795 5794 5793 5792 5791 5790 5790 5789 5789 5788 5787 5786 5786 5786 5786 5786 5786 5786 5787 5786 5786 5786 5786 5786
5803 5803 5802 5802 5803 5801 5804 5801 5801 5800 5799 5799 5798 5797 5796 5795 5794 5793 5792 5790 5789 5788 5786 5785 5784 5783 5782 5781 5781 5781 5779 5778 5779 5779 5779 5779 5779 5779 5779 5779 5779 5779 5779 5779
5797 5797 5796 5796 5795 5795 5796 5795 5794 5794 5793 5792 5791 5790 5789 5788 5787 5786 5785 5784 5783 5781 5780 5778 5777 5776 5775 5774 5773 5773 5772 5772 5771 5771 5770 5770 5771 5771 5771 5771 5771 5771 5770 5770
5791 5791 5791 5790 5789 5789 5790 5789 5788 5788 5786 5786 5785 5783 5782 5781 5781 5780 5778 5777 5776 5774 5773 5771 5770 5769 5768 5766 5765 5765 5764 5764 5763 5763 5762 5762 5762 5762 5762 5762 5762 5762 5762 5762
5785 5785 5785 5784 5783 5782 5783 5782 5782 5783 5782 5780 5778 5777 5776 5775 5774 5772 5771 5770 5768 5767 5766 5764 5763 5761 5760 5759 5758 5757 5756 5755 5755 5754 5754 5753 5753 5753 5753 5753 5753 5752 5752 5752
5779 5779 5779 5778 5777 5778 5776 5776 5776 5775 5773 5772 5771 5770 5769 5768 5767 5765 5763 5762 5761 5759 5758 5756 5755 5754 5752 5751 5750 5748 5747 5746 5745 5745 5744 5744 5744 5744 5743 5743 5743 5743 5742 5742
5772 5773 5771 5771 5772 5770 5768 5768 5767 5767 5766 5765 5764 5763 5761 5760 5759 5757 5755 5754 5753 5751 5750 5748 5747 5745 5744 5742 5741 5739 5738 5737 5736 5735 5735 5734 5734 5734 5733 5733 5733 5733 5732 5732
5765 5764 5764 5764 5764 5762 5761 5760 5760 5759 5758 5757 5756 5755 5753 5752 5750 5749 5747 5746 5744 5743 5741 5740 5738 5737 5735 5733 5732 5731 5729 5728 5727 5725 5725 5724 5724 5723 5723 5722 5722 5722 5721 5721
5757 5757 5756 5756 5756 5754 5754 5753 5752 5751 5750 5749 5748 5747 5745 5743 5741 5740 5738 5736 5735 5734 5732 5731 5729 5727 5725 5724 5723 5721 5720 5719 5717 5716 5715 5714 5713 5713 5712 5712 5711 5711 5711 5709
5749 5748 5748 5747 5747 5746 5745 5744 5743 5742 5742 5741 5739 5738 5736 5734 5732 5730 5729 5727 5726 5724 5723 5721 5719 5717 5716 5714 5713 5711 5710 5708 5707 5706 5705 5704 5703 5702 5702 5701 5700 5699 5699 5698